Starlink 11162

operational
NORAD ID: 60123 Int'l Des: 2024-118 Owner: SPXS Country: US Constellation: starlink
LEOCIRCULAR

About Starlink 11162

Description loading...

Live Position

Loading 3D Globe...

Upcoming Passes

Altitude History

Altitude vs Time

uPlot chart will show altitude changes over time

Two-Line Element Set

1 60123U 24118L 25304.79837883 -.00002465 00000-0 -15502-4 0 9991
2 60123 53.1574 136.3400 0001051 97.6231 262.4907 15.69700229 77758
Epoch: Oct 31, 2025 • Age: 21 hours

Current Status

Altitude 359.7 km
Velocity 7.70 km/s
Sub-Earth Point 16.98°N, 22.31°E
Launch Date Jun 24, 2024
Age 1.3 years
Type internet

Technical Details

Classification Payload
Mass 960.00 kg
Dry Mass 910.00 kg
Total Mass 960.00 kg
Length 0.30 m
Diameter 4.10 m
Span 29.00 m
Shape Box + pan
Manufacturer SPXS
Bus Type Starlink V2MD
Phase Status In Orbit
Owner/State SPXS/US

Large Constellations

Loading constellations...